Time,TemperatureF,DewpointF,PressureIn,WindDirection,WindDirectionDegrees,WindSpeedMPH,WindSpeedGustMPH,Humidity,HourlyPrecipIn,Conditions,Clouds,dailyrainin,SoftwareType,DateUTC
2013-03-30 00:06:00,34.2,32.0,30.16,SE,143,0.0,0.0,92,0.00,,,0.00,weatherlink.com 1.10,2013-03-30 07:06:00,
2013-03-30 00:21:00,33.7,31.0,30.16,SE,143,0.0,0.0,91,0.00,,,0.00,weatherlink.com 1.10,2013-03-30 07:21:00,
2013-03-30 00:36:00,33.3,31.0,30.16,SE,143,0.0,0.0,92,0.00,,,0.00,weatherlink.com 1.10,2013-03-30 07:36:00,
2013-03-30 00:52:00,32.9,31.0,30.17,SE,144,0.0,0.0,92,0.00,,,0.00,weatherlink.com 1.10,2013-03-30 07:52:00,
2013-03-30 01:07:00,32.4,30.0,30.17,SE,143,0.0,0.0,92,0.00,,,0.00,weatherlink.com 1.10,2013-03-30 08:07:00,
2013-03-30 01:22:00,32.0,30.0,30.17,SE,143,0.0,0.0,92,0.00,,,0.00,weatherlink.com 1.10,2013-03-30 08:22:00,
2013-03-30 01:37:00,31.6,30.0,30.17,SE,143,0.0,0.0,92,0.00,,,0.00,weatherlink.com 1.10,2013-03-30 08:37:00,
2013-03-30 01:52:00,31.3,29.0,30.16,SE,143,0.0,0.0,92,0.00,,,0.00,weatherlink.com 1.10,2013-03-30 08:52:00,
2013-03-30 02:07:00,31.0,29.0,30.16,SE,143,0.0,0.0,92,0.00,,,0.00,weatherlink.com 1.10,2013-03-30 09:07:00,
2013-03-30 02:22:00,30.5,29.0,30.16,SE,143,0.0,0.0,92,0.00,,,0.00,weatherlink.com 1.10,2013-03-30 09:22:00,
2013-03-30 02:37:00,30.3,29.0,30.16,SE,142,0.0,0.0,93,0.00,,,0.00,weatherlink.com 1.10,2013-03-30 09:37:00,
2013-03-30 02:52:00,30.1,28.0,30.16,SE,143,0.0,0.0,93,0.00,,,0.00,weatherlink.com 1.10,2013-03-30 09:52:00,
2013-03-30 03:07:00,29.9,28.0,30.17,SE,143,0.0,0.0,93,0.00,,,0.00,weatherlink.com 1.10,2013-03-30 10:07:00,
2013-03-30 03:22:00,29.7,28.0,30.17,SE,143,0.0,0.0,93,0.00,,,0.00,weatherlink.com 1.10,2013-03-30 10:22:00,
2013-03-30 03:37:00,29.5,28.0,30.17,SE,143,0.0,0.0,93,0.00,,,0.00,weatherlink.com 1.10,2013-03-30 10:37:00,
2013-03-30 03:52:00,29.3,28.0,30.16,SE,143,0.0,0.0,94,0.00,,,0.00,weatherlink.com 1.10,2013-03-30 10:52:00,
2013-03-30 04:07:00,29.7,29.0,30.17,SSE,148,0.0,1.0,95,0.00,,,0.00,weatherlink.com 1.10,2013-03-30 11:07:00,
2013-03-30 04:22:00,30.2,29.0,30.17,SSE,162,0.0,1.0,96,0.00,,,0.00,weatherlink.com 1.10,2013-03-30 11:22:00,
2013-03-30 04:37:00,29.6,28.0,30.16,SSE,162,0.0,0.0,94,0.00,,,0.00,weatherlink.com 1.10,2013-03-30 11:37:00,
2013-03-30 04:52:00,29.3,28.0,30.16,SSE,162,0.0,0.0,94,0.00,,,0.00,weatherlink.com 1.10,2013-03-30 11:52:00,
2013-03-30 05:07:00,29.2,28.0,30.16,SSE,162,0.0,0.0,95,0.00,,,0.00,weatherlink.com 1.10,2013-03-30 12:07:00,
2013-03-30 05:22:00,29.1,28.0,30.16,SSE,162,0.0,0.0,95,0.00,,,0.00,weatherlink.com 1.10,2013-03-30 12:22:00,
2013-03-30 05:37:00,28.9,27.0,30.16,SSE,162,0.0,0.0,94,0.00,,,0.00,weatherlink.com 1.10,2013-03-30 12:37:00,
2013-03-30 05:52:00,29.3,28.0,30.16,SSE,162,0.0,0.0,96,0.00,,,0.00,weatherlink.com 1.10,2013-03-30 12:52:00,
2013-03-30 06:07:00,29.4,28.0,30.16,SSE,162,0.0,0.0,96,0.00,,,0.00,weatherlink.com 1.10,2013-03-30 13:07:00,
2013-03-30 06:22:00,29.7,29.0,30.16,SSE,162,0.0,0.0,96,0.00,,,0.00,weatherlink.com 1.10,2013-03-30 13:22:00,
2013-03-30 06:37:00,29.7,29.0,30.16,SSE,161,0.0,0.0,96,0.00,,,0.00,weatherlink.com 1.10,2013-03-30 13:37:00,
2013-03-30 06:52:00,29.8,29.0,30.16,SE,128,1.0,2.0,96,0.00,,,0.00,weatherlink.com 1.10,2013-03-30 13:52:00,
2013-03-30 07:07:00,29.7,29.0,30.16,SE,136,0.0,1.0,96,0.00,,,0.00,weatherlink.com 1.10,2013-03-30 14:07:00,
2013-03-30 07:22:00,29.8,29.0,30.16,ENE,77,1.0,2.0,96,0.00,,,0.00,weatherlink.com 1.10,2013-03-30 14:22:00,
2013-03-30 07:37:00,30.0,29.0,30.16,South,179,0.0,3.0,96,0.00,,,0.00,weatherlink.com 1.10,2013-03-30 14:37:00,
2013-03-30 07:52:00,30.2,29.0,30.16,SE,136,0.0,3.0,96,0.00,,,0.00,weatherlink.com 1.10,2013-03-30 14:52:00,
2013-03-30 08:07:00,31.0,30.0,30.16,NE,44,1.0,2.0,97,0.00,,,0.00,weatherlink.com 1.10,2013-03-30 15:07:00,
2013-03-30 08:22:00,32.1,31.0,30.16,SE,138,0.0,0.0,97,0.00,,,0.00,weatherlink.com 1.10,2013-03-30 15:22:00,
2013-03-30 08:37:00,33.4,33.0,30.16,ESE,107,0.0,2.0,97,0.00,,,0.00,weatherlink.com 1.10,2013-03-30 15:37:00,
2013-03-30 08:52:00,36.0,35.0,30.16,East,96,1.0,2.0,96,0.00,,,0.00,weatherlink.com 1.10,2013-03-30 15:52:00,
2013-03-30 09:07:00,38.2,36.0,30.16,SE,125,0.0,5.0,90,0.00,,,0.00,weatherlink.com 1.10,2013-03-30 16:07:00,
2013-03-30 09:22:00,40.1,37.0,30.15,ESE,110,0.0,3.0,87,0.00,,,0.00,weatherlink.com 1.10,2013-03-30 16:22:00,
2013-03-30 09:37:00,41.5,38.0,30.15,ESE,120,1.0,3.0,86,0.00,,,0.00,weatherlink.com 1.10,2013-03-30 16:37:00,
2013-03-30 09:53:00,42.8,39.0,30.15,ENE,68,1.0,3.0,85,0.00,,,0.00,weatherlink.com 1.10,2013-03-30 16:53:00,
2013-03-30 10:08:00,45.3,40.0,30.15,SE,126,0.0,2.0,83,0.00,,,0.00,weatherlink.com 1.10,2013-03-30 17:08:00,
2013-03-30 10:23:00,47.9,42.0,30.15,SE,143,1.0,2.0,79,0.00,,,0.00,weatherlink.com 1.10,2013-03-30 17:23:00,
2013-03-30 10:38:00,49.4,42.0,30.15,ENE,72,1.0,3.0,76,0.00,,,0.00,weatherlink.com 1.10,2013-03-30 17:38:00,
2013-03-30 10:53:00,51.2,42.0,30.15,East,86,0.0,2.0,72,0.00,,,0.00,weatherlink.com 1.10,2013-03-30 17:53:00,
2013-03-30 11:08:00,52.7,43.0,30.14,East,96,0.0,2.0,69,0.00,,,0.00,weatherlink.com 1.10,2013-03-30 18:08:00,
2013-03-30 11:23:00,54.9,43.0,30.14,SE,124,0.0,0.0,65,0.00,,,0.00,weatherlink.com 1.10,2013-03-30 18:23:00,
2013-03-30 11:38:00,57.9,43.0,30.14,South,172,0.0,2.0,57,0.00,,,0.00,weatherlink.com 1.10,2013-03-30 18:38:00,
2013-03-30 11:53:00,59.3,42.0,30.14,ESE,116,2.0,3.0,54,0.00,,,0.00,weatherlink.com 1.10,2013-03-30 18:53:00,
2013-03-30 12:08:00,59.7,43.0,30.13,ESE,120,0.0,1.0,54,0.00,,,0.00,weatherlink.com 1.10,2013-03-30 19:08:00,
2013-03-30 12:23:00,62.9,43.0,30.13,SSE,160,0.0,3.0,49,0.00,,,0.00,weatherlink.com 1.10,2013-03-30 19:23:00,
2013-03-30 12:38:00,61.8,42.0,30.12,SSE,160,1.0,3.0,49,0.00,,,0.00,weatherlink.com 1.10,2013-03-30 19:38:00,
2013-03-30 12:53:00,62.4,42.0,30.12,SSW,209,2.0,3.0,48,0.00,,,0.00,weatherlink.com 1.10,2013-03-30 19:53:00,
2013-03-30 13:08:00,63.0,43.0,30.11,South,172,0.0,3.0,48,0.00,,,0.00,weatherlink.com 1.10,2013-03-30 20:08:00,
2013-03-30 13:23:00,64.5,43.0,30.11,South,188,2.0,4.0,45,0.00,,,0.00,weatherlink.com 1.10,2013-03-30 20:23:00,
2013-03-30 13:38:00,66.3,42.0,30.11,South,176,0.0,2.0,42,0.00,,,0.00,weatherlink.com 1.10,2013-03-30 20:38:00,
2013-03-30 13:53:00,65.3,42.0,30.10,ENE,66,2.0,4.0,43,0.00,,,0.00,weatherlink.com 1.10,2013-03-30 20:53:00,
2013-03-30 14:08:00,65.6,43.0,30.09,ESE,110,2.0,4.0,44,0.00,,,0.00,weatherlink.com 1.10,2013-03-30 21:08:00,
2013-03-30 14:24:00,66.8,42.0,30.09,ESE,118,2.0,2.0,41,0.00,,,0.00,weatherlink.com 1.10,2013-03-30 21:24:00,
2013-03-30 14:39:00,67.4,42.0,30.08,South,172,0.0,3.0,40,0.00,,,0.00,weatherlink.com 1.10,2013-03-30 21:39:00,
2013-03-30 14:54:00,67.1,42.0,30.08,SSE,155,3.0,4.0,41,0.00,,,0.00,weatherlink.com 1.10,2013-03-30 21:54:00,
2013-03-30 15:09:00,68.4,42.0,30.07,South,180,0.0,5.0,39,0.00,,,0.00,weatherlink.com 1.10,2013-03-30 22:09:00,
2013-03-30 15:24:00,67.0,41.0,30.07,SSW,193,2.0,4.0,39,0.00,,,0.00,weatherlink.com 1.10,2013-03-30 22:24:00,
2013-03-30 15:39:00,66.5,41.0,30.06,SE,146,0.0,2.0,40,0.00,,,0.00,weatherlink.com 1.10,2013-03-30 22:39:00,
2013-03-30 15:54:00,67.9,42.0,30.05,SE,134,0.0,2.0,39,0.00,,,0.00,weatherlink.com 1.10,2013-03-30 22:54:00,
2013-03-30 16:09:00,68.9,41.0,30.05,SSW,193,0.0,3.0,37,0.00,,,0.00,weatherlink.com 1.10,2013-03-30 23:09:00,
2013-03-30 16:24:00,68.8,41.0,30.05,SSW,207,2.0,5.0,36,0.00,,,0.00,weatherlink.com 1.10,2013-03-30 23:24:00,
2013-03-30 16:39:00,68.2,40.0,30.04,South,172,0.0,5.0,36,0.00,,,0.00,weatherlink.com 1.10,2013-03-30 23:39:00,
2013-03-30 16:54:00,67.8,40.0,30.04,SSE,167,0.0,4.0,36,0.00,,,0.00,weatherlink.com 1.10,2013-03-30 23:54:00,
2013-03-30 17:09:00,67.5,39.0,30.03,SSE,163,0.0,6.0,36,0.00,,,0.00,weatherlink.com 1.10,2013-03-31 00:09:00,
2013-03-30 17:24:00,67.0,40.0,30.03,South,181,0.0,3.0,38,0.00,,,0.00,weatherlink.com 1.10,2013-03-31 00:24:00,
2013-03-30 17:39:00,66.4,40.0,30.03,South,183,0.0,4.0,38,0.00,,,0.00,weatherlink.com 1.10,2013-03-31 00:39:00,
2013-03-30 17:55:00,65.6,41.0,30.03,SSE,164,0.0,5.0,40,0.00,,,0.00,weatherlink.com 1.10,2013-03-31 00:55:00,
2013-03-30 18:09:00,64.7,42.0,30.02,SSE,155,0.0,5.0,43,0.00,,,0.00,weatherlink.com 1.10,2013-03-31 01:09:00,
2013-03-30 18:24:00,63.3,43.0,30.02,SE,141,1.0,3.0,47,0.00,,,0.00,weatherlink.com 1.10,2013-03-31 01:24:00,
2013-03-30 18:39:00,62.3,43.0,30.03,SSE,150,0.0,5.0,49,0.00,,,0.00,weatherlink.com 1.10,2013-03-31 01:39:00,
2013-03-30 18:54:00,61.1,43.0,30.03,SSE,166,0.0,1.0,52,0.00,,,0.00,weatherlink.com 1.10,2013-03-31 01:54:00,
2013-03-30 19:09:00,59.9,43.0,30.03,South,169,0.0,2.0,54,0.00,,,0.00,weatherlink.com 1.10,2013-03-31 02:09:00,
2013-03-30 19:24:00,58.7,43.0,30.03,SSE,160,0.0,2.0,56,0.00,,,0.00,weatherlink.com 1.10,2013-03-31 02:24:00,
2013-03-30 19:39:00,57.1,43.0,30.03,South,172,0.0,2.0,59,0.00,,,0.00,weatherlink.com 1.10,2013-03-31 02:39:00,
2013-03-30 19:54:00,56.2,43.0,30.03,South,170,0.0,2.0,61,0.00,,,0.00,weatherlink.com 1.10,2013-03-31 02:54:00,
2013-03-30 20:09:00,55.0,42.0,30.03,SSE,160,0.0,1.0,63,0.00,,,0.00,weatherlink.com 1.10,2013-03-31 03:09:00,
2013-03-30 20:24:00,54.1,42.0,30.03,SSE,165,0.0,1.0,65,0.00,,,0.00,weatherlink.com 1.10,2013-03-31 03:24:00,
2013-03-30 20:39:00,53.2,42.0,30.03,SSE,166,0.0,0.0,67,0.00,,,0.00,weatherlink.com 1.10,2013-03-31 03:39:00,
2013-03-30 20:54:00,51.8,42.0,30.04,SSE,166,0.0,0.0,69,0.00,,,0.00,weatherlink.com 1.10,2013-03-31 03:54:00,
2013-03-30 21:09:00,50.6,41.0,30.04,SSE,166,0.0,0.0,71,0.00,,,0.00,weatherlink.com 1.10,2013-03-31 04:09:00,
2013-03-30 21:24:00,49.4,41.0,30.04,SSE,166,0.0,0.0,73,0.00,,,0.00,weatherlink.com 1.10,2013-03-31 04:24:00,
2013-03-30 21:39:00,48.5,41.0,30.04,SSE,166,0.0,0.0,75,0.00,,,0.00,weatherlink.com 1.10,2013-03-31 04:39:00,
2013-03-30 21:54:00,47.8,41.0,30.04,SSE,166,0.0,0.0,76,0.00,,,0.00,weatherlink.com 1.10,2013-03-31 04:54:00,
2013-03-30 22:09:00,47.0,40.0,30.04,SSE,166,0.0,0.0,77,0.00,,,0.00,weatherlink.com 1.10,2013-03-31 05:09:00,
2013-03-30 22:24:00,46.5,40.0,30.03,SSE,166,0.0,0.0,78,0.00,,,0.00,weatherlink.com 1.10,2013-03-31 05:24:00,
2013-03-30 22:39:00,46.0,41.0,30.03,SSE,166,0.0,0.0,81,0.00,,,0.00,weatherlink.com 1.10,2013-03-31 05:39:00,
2013-03-30 22:54:00,45.5,40.0,30.03,SSE,166,0.0,0.0,82,0.00,,,0.00,weatherlink.com 1.10,2013-03-31 05:54:00,
2013-03-30 23:09:00,45.1,40.0,30.03,SSE,166,0.0,0.0,82,0.00,,,0.00,weatherlink.com 1.10,2013-03-31 06:09:00,
2013-03-30 23:24:00,44.7,40.0,30.03,SSE,166,0.0,0.0,82,0.00,,,0.00,weatherlink.com 1.10,2013-03-31 06:24:00,
2013-03-30 23:39:00,44.4,40.0,30.02,SSE,166,0.0,0.0,83,0.00,,,0.00,weatherlink.com 1.10,2013-03-31 06:39:00,
2013-03-30 23:54:00,44.1,40.0,30.03,SSE,165,0.0,0.0,84,0.00,,,0.00,weatherlink.com 1.10,2013-03-31 06:54:00,